Location: Middle Street
(51.7167°N, 0.0333°E)
Time: 02:02:55
(UTC+00:00)

ERS-2 - Pass Details

Date: 20 January 2021
Orbit: 492 x 497 km, 98.6° (Epoch: 28 February)

Event Time Altitude Azimuth Distance (km) Brightness Sun altitude
Exits shadow 17:42:05 17° 64° (ENE) 1,328 3.6 -11.2°
Maximum altitude 17:43:29 21° 94° (E) 1,175 3.4 -11.4°
Drops below altitude 10° 17:46:15 10° 144° (SE) 1,687 4.6 -11.8°
Sets 17:48:42 0° 162° (SSE) 2,562 5.7 -12.2°
